[Iaude] MPEC U22: 2016 AN384 [a=11.16,e=0.42,i=9.3,H=13.6]

mpec at marsden.cfa.harvard.edu mpec at marsden.cfa.harvard.edu
Mon Oct 16 16:32:06 EDT 2023


M.P.E.C. 2023-U22                              Issued 2023 October 16, 20:30 UT

     The Minor Planet Electronic Circulars contain information on unusual
         minor planets, routine data on comets and natural satellites,
         and occasional editorial announcements.  They are published
    on behalf of Division F of the International Astronomical Union by the
          Minor Planet Center, Smithsonian Astrophysical Observatory,
                          Cambridge, MA 02138, U.S.A.
			  
             Prepared using the Tamkin Foundation Computer Network

                              MPC at CFA.HARVARD.EDU
            URL https://www.minorplanetcenter.net/    ISSN 1523-6714

                                   2016 AN384                                   


Observations:
     K16Ac4N KC2011 01 05.24172223 43 01.367+07 30 33.59         23.06GVEU022F51
     K16Ac4N  C2012 10 23.50550202 13 22.946+24 31 56.60         21.80GVEU022F51
     K16Ac4N  C2012 10 23.53579102 13 22.247+24 31 53.39         21.87GVEU022F51
     K16Ac4N  C2013 12 03.29010003 54 22.257+29 00 24.17         21.71GVEU022F51
     K16Ac4N  C2013 12 03.30424003 54 21.897+29 00 22.63         21.38GVEU022F51
     K16Ac4N  C2013 12 03.33253503 54 21.186+29 00 19.54         21.31GVEU022F51
     K16Ac4N* C2016 01 04.35355 07 58 56.487+20 30 04.50         21.8 wLEU022F51
     K16Ac4N  C2016 01 04.36394 07 58 56.211+20 30 04.84         21.8 wLEU022F51
     K16Ac4N  C2016 01 04.37433 07 58 55.960+20 30 05.00         21.8 wLEU022F51
     K16Ac4N  C2016 01 04.38474 07 58 55.732+20 30 05.33         21.6 wLEU022F51
     K16Ac4N  C2016 01 16.50196707 53 57.990+20 34 49.06         21.41GVEU022F51
     K16Ac4N  C2016 02 01.28748907 47 33.840+20 40 16.95         21.40GVEU022F51
     K16Ac4N  C2016 02 01.32716007 47 32.909+20 40 18.00         21.18GVEU022F51
     K16Ac4N  C2016 02 05.28621707 46 04.054+20 41 18.03         21.71GVEU022F51
     K16Ac4N  C2016 02 05.30045507 46 03.730+20 41 18.25         21.81GVEU022F51
     K16Ac4N  C2016 02 05.31473907 46 03.414+20 41 18.69         21.62GVEU022F51
     K16Ac4N  C2016 02 05.32927207 46 03.094+20 41 18.85         21.81GVEU022F51
     K16Ac4N  C2016 02 10.28450107 44 18.995+20 42 16.51         21.94GVEU022F51
     K16Ac4N  C2016 02 10.29759607 44 18.732+20 42 16.72         22.07GVEU022F51
     K16Ac4N  C2016 02 10.31082907 44 18.458+20 42 16.74         21.90GVEU022F51
     K16Ac4N  C2016 02 10.32432707 44 18.176+20 42 16.85         22.08GVEU022F51
     K16Ac4N  C2016 04 02.26878207 38 41.608+20 26 02.99         22.22GVEU022F51
     K16Ac4N  C2016 04 02.28139307 38 41.714+20 26 02.33         22.51GVEU022F51
     K16Ac4N  C2016 04 02.29404607 38 41.818+20 26 01.62         22.47GVEU022F51
     K16Ac4N  C2016 04 02.30671807 38 41.926+20 26 01.00         22.31GVEU022F51
     K16Ac4N  C2017 01 27.53000309 24 32.051+10 42 15.34         21.84GVEU022F51
     K16Ac4N  C2017 01 27.54217309 24 31.788+10 42 16.07         21.99GVEU022F51
     K16Ac4N  C2017 01 27.55436309 24 31.520+10 42 16.32         22.12GVEU022F51
     K16Ac4N  C2017 01 27.56660609 24 31.245+10 42 17.35         22.23GVEU022F51
     K16Ac4N  C2017 02 03.50862809 21 58.569+10 49 45.52         22.01GVEU022F51
     K16Ac4N  C2017 02 03.52136609 21 58.295+10 49 46.26         21.98GVEU022F51
     K16Ac4N  C2017 02 03.53404109 21 57.980+10 49 47.02         22.15GVEU022F51
     K16Ac4N  C2017 02 03.54674109 21 57.702+10 49 48.00         22.24GVEU022F51
     K16Ac4N  C2017 02 21.33472709 15 29.833+11 11 09.95         22.02GVEU022F51
     K16Ac4N  C2017 02 21.34635409 15 29.600+11 11 10.62         21.73GVEU022F51
     K16Ac4N  C2017 02 21.35810009 15 29.357+11 11 11.54         21.75GVEU022F51
     K16Ac4N  C2017 02 21.36989209 15 29.099+11 11 12.47         21.76GVEU022F51
     K16Ac4N  C2017 03 27.36444609 06 55.957+11 44 22.40         22.24GVEU022F51
     K16Ac4N  C2017 03 27.38717709 06 55.761+11 44 23.16         22.87GVEU022F51
     K16Ac4N  C2018 01 13.51485510 39 09.309+01 19 46.46         22.57GVEU022F51
     K16Ac4N  C2018 01 13.52661810 39 09.206+01 19 45.98         23.55GVEU022F51
     K16Ac4N  C2018 02 21.43939310 28 18.071+01 53 00.08         22.79GVEU022F51
     K16Ac4N  C2018 02 21.45222210 28 17.823+01 53 01.35         23.12GVEU022F51
     K16Ac4N  C2019 01 08.62675811 33 31.129-05 54 21.59         23.01GVEU022F51
     K16Ac4N  C2019 01 08.63721011 33 31.086-05 54 22.11         22.81GVEU022F51
     K16Ac4N  C2019 01 08.64766011 33 31.082-05 54 22.29         23.19GVEU022F51
     K16Ac4N  C2019 01 08.65810611 33 31.013-05 54 23.26         23.76GVEU022F51
     K16Ac4N KC2020 05 11.27255311 52 55.209-09 35 07.15         23.63GVEU022F51
     K16Ac4N KC2021 04 03.36575212 41 54.330-15 30 16.08         24.07GVEU022F51

Observer details:
F51 Pan-STARRS 1, Haleakala.  Observers J. Bulger, K. Chambers, T. Lowe, P.
    Minguez, A. Schultz, I. Smith, B. Gibson, T. Goggia, N. Primak, M.
    Willman.  Measurers S. Chastel, J. Fairlamb, M. Huber, E. Lilly, Y.
    Ramanjooloo, R. Wainscoat, R. Weryk, K. Chambers, L. Denneau, H.
    Flewelling, E. Magnier, C. Waters.  1.8-m Ritchey-Chretien + CCD.

Orbital elements:
2016 AN384                                                                      
Epoch 2023 Sept. 13.0 TT = JDT 2460200.5                Alexandersen            
M  86.31704              (2000.0)            P               Q                  
n   0.02644770     Peri.  149.35448     +0.09445267     -0.98464505             
a  11.1569135      Node   294.87482     +0.87742942     +0.15200549             
e   0.4166325      Incl.    9.31262     +0.47031511     -0.08583976             
P  37.3            H   13.69          G   0.15           U   2                  
Residuals in seconds of arc
110105 F51  0.2+  0.4-    160210 F51  0.0   0.0     170221 F51  0.1+  0.2-
121023 F51  0.0   0.1+    160210 F51  0.1+  0.1+    170221 F51  0.2+  0.2-
121023 F51  0.0   0.1+    160210 F51  0.1+  0.0     170221 F51  0.0   0.1-
131203 F51  0.0   0.1+    160210 F51  0.0   0.0     170327 F51  0.2+  0.1+
131203 F51  0.0   0.1+    160402 F51  0.1-  0.1+    170327 F51  0.1+  0.1+
131203 F51  0.1+  0.1+    160402 F51  0.0   0.1+    180113 F51  0.0   0.1-
160104 F51  0.1+  0.1-    160402 F51  0.0   0.0     180113 F51  0.5+  0.6-
160104 F51  0.2-  0.0     160402 F51  0.0   0.0     180221 F51  0.3-  0.0
160104 F51  0.2-  0.1-    170127 F51  0.1-  0.1+    180221 F51  0.1-  0.1+
160104 F51  0.1+  0.0     170127 F51  0.0   0.1+    190108 F51  0.1-  0.0
160116 F51  0.1+  0.0     170127 F51  0.0   0.4-    190108 F51  0.2-  0.1+
160201 F51  0.1-  0.1-    170127 F51  0.0   0.1-    190108 F51  0.3+  0.4+
160201 F51  0.0   0.2+    170203 F51  0.1-  0.1+    190108 F51  0.2-  0.0
160205 F51  0.0   0.1-    170203 F51  0.2+  0.0     200511 F51  0.0   0.2+
160205 F51  0.1-  0.1-    170203 F51  0.2-  0.1-    210403 F51  0.1+  0.1+
160205 F51  0.0   0.1+    170203 F51  0.1-  0.0
160205 F51  0.0   0.1+    170221 F51  0.1-  0.1-

Ephemeris:
2016 AN384               a,e,i = 11.16, 0.42, 9                  q = 6.5086
Date    TT    R. A. (2000) Decl.     Delta      r    Elong.  Phase     V
2023 09 16    13 47 25.7 -20 20 23  13.4167 12.6679    40.4     3.0    25.1
...
2023 10 01    13 52 19.0 -20 40 46  13.5750 12.6947    27.4     2.1    25.1
...
2023 10 09    13 55 05.0 -20 53 13  13.6383 12.7089    20.7     1.6    25.1
...
2023 10 15    13 57 12.5 -21 03 10  13.6755 12.7195    16.0     1.2    25.1
2023 10 16    13 57 33.9 -21 04 52  13.6808 12.7213    15.2     1.2    25.1
2023 10 17    13 57 55.4 -21 06 34  13.6858 12.7231    14.5     1.1    25.1
...
2023 10 23    14 00 04.8 -21 17 05  13.7106 12.7337    10.6     0.8    25.0
...
2023 10 31    14 02 58.1 -21 31 36  13.7290 12.7478     8.5     0.7    25.0
...
2023 11 15    14 08 18.7 -21 59 52  13.7178 12.7742    16.9     1.3    25.1

M. P. C. Staff               (C) Copyright 2023 MPC           M.P.E.C. 2023-U22




More information about the Iaude mailing list